Radiation Dose at Monitoring Post of Fukushima Daini Nuclear Power Station
Date,Time,MP-1(microSv/h),MP-2(microSv/h),MP-3(microSv/h),MP-4(microSv/h),MP-5(microSv/h),MP-6(microSv/h),MP-7(microSv/h),Wind Direction,Wind Velocity(m/s),Rain
2019/07/23,00:00,0.177,0.159,0.265,0.248,0.259,0.132,0.084,north-northwest,2.5,Yes
2019/07/23,00:10,0.178,0.158,0.266,0.249,0.257,0.131,0.084,northwest,3.5,Yes
2019/07/23,00:20,0.177,0.161,0.263,0.249,0.256,0.131,0.084,northwest,3.3,Yes
2019/07/23,00:30,0.178,0.159,0.265,0.247,0.259,0.132,0.084,northwest,3.2,Yes
2019/07/23,00:40,0.175,0.160,0.264,0.250,0.256,0.131,0.084,northwest,2.1,Yes
2019/07/23,00:50,0.176,0.160,0.264,0.249,0.259,0.131,0.084,north-northwest,0.9,Yes
2019/07/23,01:00,0.178,0.160,0.264,0.248,0.256,0.132,0.084,northeast,1.0,Yes
2019/07/23,01:10,0.176,0.160,0.264,0.249,0.255,0.132,0.084,-,CALM,Yes
2019/07/23,01:20,0.177,0.159,0.267,0.247,0.260,0.132,0.085,north-northeast,0.7,Yes
2019/07/23,01:30,0.176,0.161,0.265,0.249,0.257,0.132,0.084,northeast,0.9,Yes
2019/07/23,01:40,0.176,0.160,0.265,0.250,0.257,0.131,0.085,north-northwest,0.8,Yes
2019/07/23,01:50,0.178,0.160,0.266,0.247,0.259,0.133,0.084,north-northwest,2.2,Yes
2019/07/23,02:00,0.176,0.160,0.264,0.250,0.256,0.132,0.084,north-northwest,2.4,Yes
2019/07/23,02:10,0.177,0.160,0.266,0.247,0.258,0.132,0.085,north-northwest,2.4,Yes
2019/07/23,02:20,0.177,0.161,0.265,0.249,0.259,0.133,0.084,north-northwest,1.7,Yes
2019/07/23,02:30,0.177,0.161,0.264,0.250,0.256,0.132,0.085,northwest,1.7,Yes
2019/07/23,02:40,0.177,0.160,0.267,0.248,0.259,0.132,0.085,northwest,0.6,Yes
2019/07/23,02:50,0.176,0.160,0.263,0.251,0.256,0.133,0.085,northeast,1.2,Yes
2019/07/23,03:00,0.178,0.159,0.266,0.250,0.258,0.132,0.084,north-northwest,1.9,Yes
2019/07/23,03:10,0.177,0.161,0.266,0.248,0.259,0.133,0.084,north-northwest,2.5,No
2019/07/23,03:20,0.178,0.160,0.265,0.251,0.257,0.133,0.085,northwest,3.3,No
2019/07/23,03:30,0.178,0.160,0.267,0.248,0.259,0.131,0.086,north-northwest,2.1,No
2019/07/23,03:40,0.178,0.162,0.264,0.251,0.258,0.134,0.085,north-northwest,3.4,Yes
2019/07/23,03:50,0.178,0.160,0.266,0.250,0.257,0.134,0.086,north-northwest,3.5,No
2019/07/23,04:00,0.179,0.160,0.264,0.247,0.259,0.132,0.085,north-northwest,3.4,Yes
2019/07/23,04:10,0.177,0.161,0.265,0.249,0.256,0.133,0.085,north-northwest,4.0,Yes
2019/07/23,04:20,0.178,0.160,0.266,0.248,0.260,0.132,0.086,north,4.8,Yes
2019/07/23,04:30,0.177,0.161,0.264,0.248,0.258,0.131,0.084,north-northwest,5.0,Yes
2019/07/23,04:40,0.176,0.158,0.267,0.251,0.256,0.133,0.085,north-northwest,4.3,Yes
2019/07/23,04:50,0.177,0.161,0.266,0.248,0.259,0.132,0.085,north-northwest,4.5,Yes
2019/07/23,05:00,0.177,0.160,0.264,0.249,0.256,0.132,0.084,north-northwest,4.4,Yes
2019/07/23,05:10,0.177,0.160,0.265,0.249,0.257,0.133,0.086,north-northwest,4.5,Yes
2019/07/23,05:20,0.179,0.160,0.264,0.247,0.258,0.132,0.085,north-northwest,4.2,Yes
2019/07/23,05:30,0.177,0.160,0.265,0.251,0.257,0.133,0.085,north-northwest,4.2,Yes
2019/07/23,05:40,0.178,0.161,0.264,0.247,0.260,0.132,0.085,north-northwest,3.8,Yes
2019/07/23,05:50,0.178,0.159,0.263,0.250,0.257,0.132,0.085,north,3.9,Yes
2019/07/23,06:00,0.176,0.161,0.265,0.249,0.257,0.132,0.085,north-northwest,3.5,Yes
2019/07/23,06:10,0.178,0.160,0.264,0.247,0.259,0.132,0.084,north-northwest,3.7,Yes
2019/07/23,06:20,0.177,0.160,0.265,0.250,0.255,0.130,0.084,north-northwest,3.6,Yes
2019/07/23,06:30,0.176,0.160,0.266,0.249,0.259,0.132,0.085,north-northwest,3.6,Yes
2019/07/23,06:40,0.178,0.159,0.264,0.247,0.258,0.131,0.085,north-northwest,3.9,Yes
2019/07/23,06:50,0.177,0.160,0.265,0.249,0.256,0.131,0.085,north-northwest,3.9,Yes
2019/07/23,07:00,0.177,0.160,0.263,0.247,0.260,0.132,0.085,north-northwest,4.4,Yes
2019/07/23,07:10,0.177,0.161,0.264,0.248,0.256,0.132,0.085,north-northwest,4.1,Yes
2019/07/23,07:20,0.176,0.160,0.264,0.248,0.256,0.131,0.085,north-northwest,3.8,Yes
2019/07/23,07:30,0.177,0.159,0.260,0.245,0.259,0.132,0.085,north-northwest,4.2,Yes
2019/07/23,07:40,0.176,0.161,0.264,0.249,0.256,0.131,0.086,north-northwest,4.1,Yes
2019/07/23,07:50,0.177,0.160,0.262,0.247,0.259,0.131,0.085,northwest,4.1,Yes
2019/07/23,08:00,0.176,0.161,0.263,0.247,0.257,0.133,0.085,northwest,3.3,Yes
2019/07/23,08:10,0.175,0.160,0.264,0.250,0.255,0.131,0.086,north-northwest,2.8,Yes
2019/07/23,08:20,0.177,0.160,0.262,0.246,0.259,0.131,0.085,north-northwest,2.5,Yes
2019/07/23,08:30,0.176,0.160,0.264,0.247,0.257,0.132,0.085,north-northwest,2.6,Yes
2019/07/23,08:40,0.175,0.160,0.264,0.248,0.255,0.131,0.086,north-northwest,1.8,Yes
2019/07/23,08:50,0.178,0.160,0.262,0.246,0.259,0.131,0.085,north-northwest,2.2,Yes
2019/07/23,09:00,0.175,0.160,0.264,0.248,0.257,0.132,0.085,north-northwest,1.9,Yes
2019/07/23,09:10,0.175,0.160,0.263,0.248,0.257,0.132,0.085,north-northwest,1.8,Yes
2019/07/23,09:20,0.177,0.161,0.263,0.246,0.259,0.131,0.085,north-northwest,1.3,Yes
2019/07/23,09:30,0.176,0.161,0.265,0.249,0.257,0.132,0.086,north,0.9,Yes
2019/07/23,09:40,0.176,0.160,0.264,0.249,0.257,0.131,0.086,north-northeast,1.2,Yes
2019/07/23,09:50,0.177,0.160,0.265,0.247,0.260,0.131,0.086,north,0.6,Yes
2019/07/23,10:00,0.175,0.161,0.265,0.250,0.257,0.133,0.086,north,1.0,Yes
2019/07/23,10:10,0.176,0.159,0.263,0.248,0.256,0.131,0.085,north,1.6,Yes
2019/07/23,10:20,0.177,0.160,0.265,0.246,0.260,0.132,0.084,north,1.3,Yes
2019/07/23,10:30,0.174,0.160,0.266,0.250,0.258,0.132,0.085,north-northwest,1.3,Yes
2019/07/23,10:40,0.176,0.159,0.262,0.246,0.255,0.131,0.085,north-northwest,1.3,Yes
2019/07/23,10:50,0.176,0.161,0.264,0.246,0.259,0.130,0.084,-,CALM,Yes
2019/07/23,11:00,0.175,0.160,0.263,0.248,0.257,0.131,0.085,southeast,0.7,Yes
2019/07/23,11:10,0.176,0.158,0.261,0.247,0.255,0.132,0.084,southeast,1.4,Yes
2019/07/23,11:20,0.175,0.160,0.264,0.245,0.258,0.130,0.083,southeast,1.4,Yes
2019/07/23,11:30,0.174,0.160,0.263,0.247,0.257,0.130,0.084,south-southeast,1.6,Yes
2019/07/23,11:40,0.176,0.160,0.260,0.248,0.255,0.131,0.084,south-southeast,2.1,Yes
2019/07/23,11:50,0.176,0.159,0.263,0.244,0.257,0.131,0.084,south-southeast,2.4,Yes
2019/07/23,12:00,0.174,0.159,0.262,0.245,0.257,0.130,0.084,south-southeast,2.9,Yes
2019/07/23,12:10,0.175,0.158,0.262,0.247,0.254,0.131,0.084,south-southeast,3.8,Yes
2019/07/23,12:20,0.176,0.160,0.261,0.245,0.255,0.130,0.084,south-southeast,3.4,Yes
2019/07/23,12:30,0.175,0.159,0.263,0.246,0.258,0.130,0.085,south-southeast,3.0,Yes
2019/07/23,12:40,0.173,0.158,0.261,0.248,0.255,0.130,0.084,south-southeast,3.1,Yes
2019/07/23,12:50,0.176,0.159,0.263,0.244,0.254,0.130,0.084,south-southeast,2.5,Yes
2019/07/23,13:00,0.175,0.158,0.264,0.246,0.258,0.129,0.084,south-southeast,2.6,Yes
2019/07/23,13:10,0.173,0.157,0.260,0.246,0.257,0.129,0.084,south-southeast,2.2,Yes
2019/07/23,13:20,0.176,0.159,0.262,0.245,0.253,0.130,0.084,southeast,1.8,Yes
2019/07/23,13:30,0.175,0.158,0.263,0.246,0.259,0.130,0.084,south-southeast,1.3,Yes
2019/07/23,13:40,0.174,0.158,0.261,0.248,0.257,0.130,0.084,southeast,1.6,Yes
2019/07/23,13:50,0.176,0.159,0.263,0.246,0.253,0.130,0.083,southeast,2.2,Yes
2019/07/23,14:00,0.176,0.158,0.264,0.245,0.255,0.130,0.084,southeast,2.6,Yes
2019/07/23,14:10,0.175,0.158,0.262,0.248,0.258,0.129,0.084,south-southeast,2.7,Yes
2019/07/23,14:20,0.175,0.159,0.261,0.246,0.255,0.129,0.083,south-southeast,1.9,Yes
2019/07/23,14:30,0.175,0.158,0.263,0.244,0.252,0.130,0.085,south-southeast,2.6,Yes
2019/07/23,14:40,0.174,0.157,0.260,0.245,0.258,0.129,0.084,south-southeast,2.8,Yes
2019/07/23,14:50,0.173,0.158,0.258,0.246,0.256,0.130,0.084,south-southeast,2.4,Yes
2019/07/23,15:00,0.176,0.158,0.260,0.242,0.252,0.130,0.083,south-southeast,3.3,Yes
2019/07/23,15:10,0.174,0.158,0.259,0.246,0.257,0.129,0.084,southeast,3.5,Yes
2019/07/23,15:20,0.174,0.158,0.261,0.246,0.256,0.128,0.084,southeast,3.3,Yes
2019/07/23,15:30,0.176,0.159,0.263,0.244,0.254,0.130,0.084,southeast,4.0,Yes
2019/07/23,15:40,0.174,0.157,0.258,0.246,0.256,0.130,0.083,south-southeast,4.3,No
2019/07/23,15:50,0.174,0.159,0.261,0.246,0.258,0.129,0.082,south-southeast,3.1,No
2019/07/23,16:00,0.176,0.159,0.262,0.244,0.255,0.131,0.083,south-southeast,3.3,Yes
2019/07/23,16:10,0.176,0.157,0.261,0.246,0.256,0.130,0.084,southeast,3.3,Yes
2019/07/23,16:20,0.174,0.159,0.263,0.246,0.257,0.129,0.083,southeast,3.2,Yes
2019/07/23,16:30,0.176,0.159,0.264,0.245,0.254,0.130,0.083,southeast,3.1,No
2019/07/23,16:40,0.177,0.158,0.261,0.247,0.254,0.130,0.084,southeast,3.2,No
2019/07/23,16:50,0.173,0.159,0.263,0.247,0.258,0.129,0.083,southeast,2.7,No
2019/07/23,17:00,0.175,0.158,0.265,0.245,0.255,0.131,0.083,southeast,2.4,Yes
2019/07/23,17:10,0.176,0.157,0.262,0.248,0.254,0.131,0.084,southeast,2.2,Yes
2019/07/23,17:20,0.175,0.159,0.262,0.247,0.257,0.129,0.083,southeast,3.0,Yes
2019/07/23,17:30,0.174,0.159,0.264,0.245,0.257,0.129,0.083,southeast,3.9,Yes
2019/07/23,17:40,0.177,0.158,0.262,0.248,0.253,0.130,0.084,south-southeast,4.1,Yes
2019/07/23,17:50,0.176,0.159,0.263,0.248,0.258,0.130,0.083,south-southeast,3.4,Yes
2019/07/23,18:00,0.174,0.158,0.263,0.245,0.257,0.129,0.083,south-southeast,2.8,Yes
2019/07/23,18:10,0.176,0.158,0.262,0.248,0.255,0.131,0.084,south-southeast,3.1,Yes
2019/07/23,18:20,0.176,0.159,0.263,0.247,0.258,0.130,0.083,south-southeast,3.0,Yes
2019/07/23,18:30,0.174,0.158,0.264,0.245,0.257,0.130,0.084,south-southeast,2.4,Yes
2019/07/23,18:40,0.178,0.157,0.262,0.248,0.254,0.130,0.084,south-southeast,2.9,Yes
2019/07/23,18:50,0.175,0.159,0.264,0.247,0.258,0.130,0.083,south-southeast,3.3,Yes
2019/07/23,19:00,0.175,0.159,0.263,0.245,0.257,0.129,0.083,south-southeast,2.7,No
2019/07/23,19:10,0.177,0.158,0.262,0.248,0.254,0.131,0.084,southeast,2.4,Yes
2019/07/23,19:20,0.175,0.159,0.264,0.246,0.258,0.130,0.084,south,2.7,No
2019/07/23,19:30,0.175,0.158,0.262,0.247,0.256,0.130,0.084,south-southeast,3.1,No
2019/07/23,19:40,0.176,0.158,0.264,0.249,0.254,0.131,0.083,south-southeast,2.7,Yes
2019/07/23,19:50,0.175,0.159,0.264,0.246,0.257,0.130,0.082,southeast,3.6,Yes
2019/07/23,20:00,0.176,0.157,0.261,0.247,0.257,0.130,0.084,south-southeast,3.5,Yes
2019/07/23,20:10,0.177,0.159,0.264,0.248,0.255,0.131,0.083,south-southeast,2.8,Yes
2019/07/23,20:20,0.176,0.159,0.264,0.246,0.258,0.130,0.083,south-southeast,3.5,Yes
2019/07/23,20:30,0.176,0.158,0.261,0.248,0.256,0.130,0.084,south-southeast,2.5,Yes
2019/07/23,20:40,0.176,0.159,0.263,0.248,0.253,0.130,0.083,south-southeast,4.8,Yes
2019/07/23,20:50,0.176,0.158,0.263,0.244,0.256,0.130,0.083,south-southeast,4.0,Yes
2019/07/23,21:00,0.174,0.157,0.259,0.245,0.255,0.129,0.084,southeast,2.0,Yes
2019/07/23,21:10,0.176,0.159,0.261,0.245,0.253,0.130,0.083,south-southeast,3.3,Yes
2019/07/23,21:20,0.175,0.158,0.260,0.243,0.256,0.129,0.083,south,4.1,Yes
2019/07/23,21:30,0.173,0.157,0.256,0.241,0.251,0.128,0.083,south-southeast,2.8,Yes
2019/07/23,21:40,0.174,0.158,0.260,0.240,0.254,0.129,0.083,southeast,4.1,Yes
2019/07/23,21:50,0.172,0.157,0.257,0.240,0.255,0.129,0.084,south-southeast,4.0,Yes
2019/07/23,22:00,0.175,0.159,0.260,0.243,0.254,0.128,0.083,south-southeast,3.1,Yes
2019/07/23,22:10,0.175,0.158,0.260,0.242,0.255,0.130,0.083,south-southeast,3.5,Yes
2019/07/23,22:20,0.173,0.158,0.258,0.244,0.257,0.130,0.084,south-southeast,3.9,No
2019/07/23,22:30,0.174,0.158,0.262,0.245,0.254,0.128,0.084,south,3.5,Yes
2019/07/23,22:40,0.174,0.158,0.262,0.243,0.256,0.130,0.083,south-southeast,3.3,Yes
2019/07/23,22:50,0.173,0.158,0.260,0.244,0.257,0.129,0.084,south-southeast,3.1,Yes
2019/07/23,23:00,0.175,0.159,0.263,0.246,0.256,0.129,0.084,south-southeast,2.7,No
2019/07/23,23:10,0.174,0.157,0.261,0.244,0.256,0.130,0.083,south,3.6,No
2019/07/23,23:20,0.175,0.159,0.260,0.246,0.257,0.129,0.084,south,2.7,Yes
2019/07/23,23:30,0.175,0.158,0.263,0.247,0.253,0.129,0.083,south-southeast,3.6,Yes
2019/07/23,23:40,0.175,0.157,0.261,0.244,0.255,0.129,0.083,south,3.2,Yes
2019/07/23,23:50,0.173,0.158,0.260,0.245,0.255,0.129,0.083,south-southeast,2.9,Yes
